Baker, OR

1:13 PM PDT on September 21, 2017 (GMT -0700)
Baker City Municipal

Weather History for KBKE - March, 2013

Change the Weather History Date:

Monday, March 25, 2013

  Actual Average Record
Temperature  
Mean Temperature 41 °F 40 °F  
Max Temperature 50 °F 53 °F 73 °F (1960)
Min Temperature 32 °F 27 °F 15 °F (1996)
Degree Days  
Heating Degree Days 24 25  
Month to date heating degree days 714 702  
Since 1 July heating degree days 6106 6222  
Cooling Degree Days 0 0  
Month to date cooling degree days 0 0  
Year to date cooling degree days 0 0  
Moisture  
Dew Point 17 °F    
Average Humidity 40    
Maximum Humidity 54    
Minimum Humidity 25    
Precipitation  
Precipitation 0.00 in 0.03 in 0.68 in (1981)
Month to date precipitation 0.21 0.66  
Year to date precipitation 1.48 2.04  
Sea Level Pressure  
Sea Level Pressure 30.09 in    
Wind  
Wind Speed 9 mph (ESE)    
Max Wind Speed 17 mph    
Max Gust Speed 23 mph    
Visibility 10 miles    
Events      
T = Trace of Precipitation, MM = Missing Value Source: NWS Daily Summary

Daily Weather History Graph

Daily Weather History Graph

Search for Another Location

Airport or City:

Trip Planner

Search our weather history database for the weather conditions in past years. The results will help you decide how hot, cold, wet, or windy it might be!

Date:

Astronomy

Mar. 25, 2013 Rise Set
Actual Time 6:44 AM PDT 7:10 PM PDT
Civil Twilight 6:15 AM PDT 7:39 PM PDT
Nautical Twilight 5:40 AM PDT 8:14 PM PDT
Astronomical Twilight 5:04 AM PDT 8:50 PM PDT
Moon 5:45 PM PDT (3/25) 5:33 AM PDT (3/25)
Length of Visible Light 13h 24m
Length of Day
12h 26m
Waxing Gibbous, 97% of the Moon is Illuminated
Mar 25
Waxing Gibbous
Mar 27
Full
Apr 2
Last Quarter
Apr 10
New
Apr 18
First Quarter

Hourly Weather History & Observations

Time (PDT) Temp. Windchill Dew Point Humidity Pressure Visibility Wind Dir Wind Speed Gust Speed Precip Events Conditions
12:53 AM 32.0 °F 25.6 °F 17.1 °F 54% 30.17 in 10.0 mi East 6.9 mph - N/A   Overcast
1:53 AM 32.0 °F 25.6 °F 16.0 °F 52% 30.16 in 10.0 mi East 6.9 mph - N/A   Mostly Cloudy
2:53 AM 35.1 °F 30.1 °F 15.1 °F 44% 30.15 in 10.0 mi SE 5.8 mph - N/A   Overcast
3:53 AM 35.6 °F 28.0 °F 15.8 °F 44% 30.11 in 10.0 mi East 10.4 mph - N/A   Overcast
4:53 AM 35.1 °F 28.6 °F 15.1 °F 44% 30.15 in 10.0 mi East 8.1 mph - N/A   Overcast
5:53 AM 36.0 °F 29.6 °F 14.0 °F 41% 30.15 in 10.0 mi ESE 8.1 mph - N/A   Overcast
6:53 AM 35.1 °F 28.6 °F 14.0 °F 42% 30.16 in 10.0 mi East 8.1 mph - N/A   Overcast
7:53 AM 36.0 °F 29.0 °F 14.0 °F 41% 30.17 in 10.0 mi East 9.2 mph - N/A   Overcast
8:53 AM 39.0 °F 33.4 °F 12.0 °F 33% 30.17 in 10.0 mi ESE 8.1 mph - N/A   Overcast
9:53 AM 41.0 °F 36.4 °F 12.0 °F 31% 30.16 in 10.0 mi ESE 6.9 mph 16.1 mph N/A   Mostly Cloudy
10:53 AM 44.1 °F 38.1 °F 12.0 °F 27% 30.15 in 10.0 mi South 11.5 mph - N/A   Partly Cloudy
11:53 AM 46.0 °F 40.2 °F 12.9 °F 26% 30.12 in 10.0 mi South 12.7 mph 18.4 mph N/A   Overcast
12:53 PM 46.0 °F 40.6 °F 14.0 °F 28% 30.11 in 10.0 mi SE 11.5 mph 16.1 mph N/A   Mostly Cloudy
1:53 PM 48.0 °F - 17.1 °F 29% 30.08 in 10.0 mi SSE 8.1 mph - N/A   Partly Cloudy
2:53 PM 48.9 °F - 19.0 °F 31% 30.05 in 10.0 mi SE 9.2 mph - N/A   Mostly Cloudy
3:53 PM 50.0 °F - 19.9 °F 31% 30.02 in 10.0 mi ESE 12.7 mph 21.9 mph N/A   Partly Cloudy
4:53 PM 46.9 °F - 19.9 °F 34% 30.01 in 10.0 mi East 13.8 mph - N/A   Scattered Clouds
5:53 PM 45.0 °F 37.9 °F 19.9 °F 37% 30.00 in 10.0 mi East 16.1 mph - N/A   Scattered Clouds
6:53 PM 44.1 °F 39.0 °F 21.0 °F 40% 30.00 in 10.0 mi East 9.2 mph - N/A   Mostly Cloudy
7:53 PM 42.1 °F 37.7 °F 21.9 °F 45% 30.01 in 10.0 mi East 6.9 mph - N/A   Mostly Cloudy
8:53 PM 42.1 °F 36.6 °F 21.9 °F 45% 29.99 in 10.0 mi East 9.2 mph - N/A   Overcast
9:53 PM 41.0 °F 37.1 °F 21.9 °F 47% 30.00 in 10.0 mi ESE 5.8 mph - N/A   Overcast
10:53 PM 39.9 °F 37.8 °F 21.9 °F 49% 29.99 in 10.0 mi South 3.5 mph - N/A   Overcast
11:53 PM 39.9 °F - 23.0 °F 51% 29.98 in 10.0 mi Calm Calm - N/A   Overcast